owner,sensor,date,latitude,longitude,vertical_datum,wind_speed,wind_to_direction,wind_speed_of_gust,qcFlag 
ADCP,ioos:station:wmo:42369:1,2012-02-01T00:00:00Z,27.2070,-90.2830,60.4,6.6,135.0,99.0,'11111222,11111222,11144222' 
ADCP,ioos:station:wmo:42369:1,2012-02-01T00:20:00Z,27.2070,-90.2830,60.4,6.6,135.0,99.0,'11111222,11111222,11144222' 
ADCP,ioos:station:wmo:42369:1,2012-02-01T01:00:00Z,27.2070,-90.2830,60.4,7.5,140.0,99.0,'11111222,11111222,11144222' 
ADCP,ioos:station:wmo:42369:1,2012-02-01T01:20:00Z,27.2070,-90.2830,60.4,7.5,140.0,99.0,'11111222,11111222,11144222' 
ADCP,ioos:station:wmo:42369:1,2012-02-01T02:00:00Z,27.2070,-90.2830,60.4,8.3,135.0,99.0,'11111222,11111222,11144222' 
ADCP,ioos:station:wmo:42369:1,2012-02-01T02:20:00Z,27.2070,-90.2830,60.4,8.3,135.0,99.0,'11111222,11111222,11144222' 
ADCP,ioos:station:wmo:42369:1,2012-02-01T03:20:00Z,27.2070,-90.2830,60.4,8.0,143.0,99.0,'11111222,11111222,11144222' 
ADCP,ioos:station:wmo:42369:1,2012-02-01T05:00:00Z,27.2070,-90.2830,60.4,7.6,143.0,99.0,'11111222,11111222,11144222' 
ADCP,ioos:station:wmo:42369:1,2012-02-01T06:00:00Z,27.2070,-90.2830,60.4,7.6,143.0,99.0,'11111222,11111222,11144222' 
ADCP,ioos:station:wmo:42369:1,2012-02-01T06:20:00Z,27.2070,-90.2830,60.4,7.6,143.0,99.0,'11111222,11111222,11144222' 
ADCP,ioos:station:wmo:42369:1,2012-02-01T06:40:00Z,27.2070,-90.2830,60.4,7.6,148.0,99.0,'11111222,11111222,11144222' 
ADCP,ioos:station:wmo:42369:1,2012-02-01T07:00:00Z,27.2070,-90.2830,60.4,7.3,152.0,99.0,'11111222,11111222,11144222' 
ADCP,ioos:station:wmo:42369:1,2012-02-01T07:20:00Z,27.2070,-90.2830,60.4,7.3,152.0,99.0,'11111222,11111222,11144222' 
ADCP,ioos:station:wmo:42369:1,2012-02-01T08:20:00Z,27.2070,-90.2830,60.4,6.0,151.0,99.0,'11111222,11111222,11144222' 
ADCP,ioos:station:wmo:42369:1,2012-02-01T09:00:00Z,27.2070,-90.2830,60.4,5.9,157.0,99.0,'11111222,11111222,11144222' 
ADCP,ioos:station:wmo:42369:1,2012-02-01T09:20:00Z,27.2070,-90.2830,60.4,5.9,157.0,99.0,'11111222,11111222,11144222' 
ADCP,ioos:station:wmo:42369:1,2012-02-01T10:00:00Z,27.2070,-90.2830,60.4,5.7,147.0,99.0,'11111222,11111222,11144222' 
ADCP,ioos:station:wmo:42369:1,2012-02-01T10:20:00Z,27.2070,-90.2830,60.4,5.7,147.0,99.0,'11111222,11111222,11144222' 
ADCP,ioos:station:wmo:42369:1,2012-02-01T11:00:00Z,27.2070,-90.2830,60.4,6.2,151.0,99.0,'11111222,11111222,11144222' 
ADCP,ioos:station:wmo:42369:1,2012-02-01T11:20:00Z,27.2070,-90.2830,60.4,6.2,151.0,99.0,'11111222,11111222,11144222' 
ADCP,ioos:station:wmo:42369:1,2012-02-01T12:00:00Z,27.2070,-90.2830,60.4,5.8,160.0,99.0,'11111222,11111222,11144222' 
ADCP,ioos:station:wmo:42369:1,2012-02-01T12:20:00Z,27.2070,-90.2830,60.4,5.8,160.0,99.0,'11111222,11111222,11144222' 
ADCP,ioos:station:wmo:42369:1,2012-02-01T13:20:00Z,27.2070,-90.2830,60.4,5.9,157.0,99.0,'11111222,11111222,11144222' 
ADCP,ioos:station:wmo:42369:1,2012-02-01T13:40:00Z,27.2070,-90.2830,60.4,5.9,157.0,99.0,'11111222,11111222,11144222' 
ADCP,ioos:station:wmo:42369:1,2012-02-01T14:00:00Z,27.2070,-90.2830,60.4,5.9,157.0,99.0,'11111222,11111222,11144222' 
ADCP,ioos:station:wmo:42369:1,2012-02-01T14:20:00Z,27.2070,-90.2830,60.4,5.9,157.0,99.0,'11111222,11111222,11144222' 
ADCP,ioos:station:wmo:42369:1,2012-02-01T14:40:00Z,27.2070,-90.2830,60.4,5.3,149.0,99.0,'11111222,11111222,11144222' 
ADCP,ioos:station:wmo:42369:1,2012-02-01T15:00:00Z,27.2070,-90.2830,60.4,5.1,152.0,99.0,'11111222,11111222,11144222' 
ADCP,ioos:station:wmo:42369:1,2012-02-01T15:20:00Z,27.2070,-90.2830,60.4,5.1,152.0,99.0,'11111222,11111222,11144222' 
ADCP,ioos:station:wmo:42369:1,2012-02-01T16:20:00Z,27.2070,-90.2830,60.4,5.6,162.0,99.0,'11111222,11111222,11144222' 
ADCP,ioos:station:wmo:42369:1,2012-02-01T17:00:00Z,27.2070,-90.2830,60.4,3.4,156.0,99.0,'11111222,11111222,11144222' 
ADCP,ioos:station:wmo:42369:1,2012-02-01T17:20:00Z,27.2070,-90.2830,60.4,3.4,156.0,99.0,'11111222,11111222,11144222' 
ADCP,ioos:station:wmo:42369:1,2012-02-01T18:00:00Z,27.2070,-90.2830,60.4,3.0,167.0,99.0,'11111222,11111222,11144222' 
ADCP,ioos:station:wmo:42369:1,2012-02-01T18:20:00Z,27.2070,-90.2830,60.4,3.0,167.0,99.0,'11111222,11111222,11144222' 
ADCP,ioos:station:wmo:42369:1,2012-02-01T19:00:00Z,27.2070,-90.2830,60.4,2.4,181.0,99.0,'11111222,11111222,11144222' 
ADCP,ioos:station:wmo:42369:1,2012-02-01T19:20:00Z,27.2070,-90.2830,60.4,2.4,181.0,99.0,'11111222,11111222,11144222' 
ADCP,ioos:station:wmo:42369:1,2012-02-01T20:00:00Z,27.2070,-90.2830,60.4,1.9,180.0,99.0,'11111222,11111222,11144222' 
ADCP,ioos:station:wmo:42369:1,2012-02-01T20:20:00Z,27.2070,-90.2830,60.4,1.9,180.0,99.0,'11111222,11111222,11144222' 
ADCP,ioos:station:wmo:42369:1,2012-02-01T21:00:00Z,27.2070,-90.2830,60.4,1.5,169.0,99.0,'11111222,11111222,11144222' 
ADCP,ioos:station:wmo:42369:1,2012-02-01T21:20:00Z,27.2070,-90.2830,60.4,1.5,169.0,99.0,'11111222,11111222,11144222' 
ADCP,ioos:station:wmo:42369:1,2012-02-01T22:00:00Z,27.2070,-90.2830,60.4,2.6,172.0,99.0,'11111222,11111222,11144222' 
ADCP,ioos:station:wmo:42369:1,2012-02-01T22:20:00Z,27.2070,-90.2830,60.4,2.6,172.0,99.0,'11111222,11111222,11144222' 
ADCP,ioos:station:wmo:42369:1,2012-02-01T23:00:00Z,27.2070,-90.2830,60.4,3.2,172.0,99.0,'11111222,11111222,11144222' 
ADCP,ioos:station:wmo:42369:1,2012-02-01T23:20:00Z,27.2070,-90.2830,60.4,3.2,172.0,99.0,'11111222,11111222,11144222' 
ADCP,ioos:station:wmo:42369:1,2012-02-02T00:00:00Z,27.2070,-90.2830,60.4,3.8,181.0,99.0,'11111222,11111222,11144222' 
ADCP,ioos:station:wmo:42369:1,2012-02-02T00:20:00Z,27.2070,-90.2830,60.4,3.8,181.0,99.0,'11111222,11111222,11144222' 
ADCP,ioos:station:wmo:42369:1,2012-02-02T01:00:00Z,27.2070,-90.2830,60.4,2.6,210.0,99.0,'11111222,11111222,11144222' 
ADCP,ioos:station:wmo:42369:1,2012-02-02T01:20:00Z,27.2070,-90.2830,60.4,2.6,210.0,99.0,'11111222,11111222,11144222' 
ADCP,ioos:station:wmo:42369:1,2012-02-02T02:20:00Z,27.2070,-90.2830,60.4,1.2,198.0,99.0,'11111222,11111222,11144222' 
ADCP,ioos:station:wmo:42369:1,2012-02-02T03:20:00Z,27.2070,-90.2830,60.4,1.3,181.0,99.0,'11111222,11111222,11144222' 
ADCP,ioos:station:wmo:42369:1,2012-02-02T04:00:00Z,27.2070,-90.2830,60.4,1.7,151.0,99.0,'11111222,11111222,11144222' 
ADCP,ioos:station:wmo:42369:1,2012-02-02T04:20:00Z,27.2070,-90.2830,60.4,1.7,151.0,99.0,'11111222,11111222,11144222' 
ADCP,ioos:station:wmo:42369:1,2012-02-02T05:00:00Z,27.2070,-90.2830,60.4,1.2,167.0,99.0,'11111222,11111222,11144222' 
ADCP,ioos:station:wmo:42369:1,2012-02-02T05:20:00Z,27.2070,-90.2830,60.4,1.2,167.0,99.0,'11111222,11111222,11144222' 
ADCP,ioos:station:wmo:42369:1,2012-02-02T06:00:00Z,27.2070,-90.2830,60.4,2.6,184.0,99.0,'11111222,11111222,11144222' 
ADCP,ioos:station:wmo:42369:1,2012-02-02T06:20:00Z,27.2070,-90.2830,60.4,2.6,184.0,99.0,'11111222,11111222,11144222' 
ADCP,ioos:station:wmo:42369:1,2012-02-02T07:00:00Z,27.2070,-90.2830,60.4,1.1,128.0,99.0,'11111222,11111222,11144222' 
ADCP,ioos:station:wmo:42369:1,2012-02-02T07:20:00Z,27.2070,-90.2830,60.4,1.1,128.0,99.0,'11111222,11111222,11144222' 
ADCP,ioos:station:wmo:42369:1,2012-02-02T08:00:00Z,27.2070,-90.2830,60.4,1.2,90.0,99.0,'11111222,11111222,11144222' 
ADCP,ioos:station:wmo:42369:1,2012-02-02T08:20:00Z,27.2070,-90.2830,60.4,1.2,90.0,99.0,'11111222,11111222,11144222' 
ADCP,ioos:station:wmo:42369:1,2012-02-02T09:20:00Z,27.2070,-90.2830,60.4,1.7,110.0,99.0,'11111222,11111222,11144222' 
ADCP,ioos:station:wmo:42369:1,2012-02-02T10:20:00Z,27.2070,-90.2830,60.4,1.8,107.0,99.0,'11111222,11111222,11144222' 
ADCP,ioos:station:wmo:42369:1,2012-02-02T11:00:00Z,27.2070,-90.2830,60.4,2.8,121.0,99.0,'11111222,11111222,11144222' 
ADCP,ioos:station:wmo:42369:1,2012-02-02T11:20:00Z,27.2070,-90.2830,60.4,2.8,121.0,99.0,'11111222,11111222,11144222' 
ADCP,ioos:station:wmo:42369:1,2012-02-02T11:40:00Z,27.2070,-90.2830,60.4,2.8,116.0,99.0,'11111222,11111222,11144222' 
ADCP,ioos:station:wmo:42369:1,2012-02-02T12:00:00Z,27.2070,-90.2830,60.4,3.0,117.0,99.0,'11111222,11111222,11144222' 
ADCP,ioos:station:wmo:42369:1,2012-02-02T13:00:00Z,27.2070,-90.2830,60.4,3.5,124.0,99.0,'11111222,11111222,11144222' 
ADCP,ioos:station:wmo:42369:1,2012-02-02T13:20:00Z,27.2070,-90.2830,60.4,3.5,124.0,99.0,'11111222,11111222,11144222' 
ADCP,ioos:station:wmo:42369:1,2012-02-02T14:00:00Z,27.2070,-90.2830,60.4,3.0,131.0,99.0,'11111222,11111222,11144222' 
ADCP,ioos:station:wmo:42369:1,2012-02-02T14:20:00Z,27.2070,-90.2830,60.4,3.0,131.0,99.0,'11111222,11111222,11144222' 
ADCP,ioos:station:wmo:42369:1,2012-02-02T15:00:00Z,27.2070,-90.2830,60.4,3.5,108.0,99.0,'11111222,11111222,11144222' 
ADCP,ioos:station:wmo:42369:1,2012-02-02T15:20:00Z,27.2070,-90.2830,60.4,3.5,108.0,99.0,'11111222,11111222,11144222' 
ADCP,ioos:station:wmo:42369:1,2012-02-02T16:00:00Z,27.2070,-90.2830,60.4,3.1,128.0,99.0,'11111222,11111222,11144222' 
ADCP,ioos:station:wmo:42369:1,2012-02-02T16:20:00Z,27.2070,-90.2830,60.4,3.1,128.0,99.0,'11111222,11111222,11144222' 
ADCP,ioos:station:wmo:42369:1,2012-02-02T17:00:00Z,27.2070,-90.2830,60.4,3.1,92.0,99.0,'11111222,11111222,11144222' 
ADCP,ioos:station:wmo:42369:1,2012-02-02T17:20:00Z,27.2070,-90.2830,60.4,3.1,92.0,99.0,'11111222,11111222,11144222' 
ADCP,ioos:station:wmo:42369:1,2012-02-02T18:00:00Z,27.2070,-90.2830,60.4,3.6,96.0,99.0,'11111222,11111222,11144222' 
ADCP,ioos:station:wmo:42369:1,2012-02-02T18:20:00Z,27.2070,-90.2830,60.4,3.6,96.0,99.0,'11111222,11111222,11144222' 
ADCP,ioos:station:wmo:42369:1,2012-02-02T19:00:00Z,27.2070,-90.2830,60.4,3.3,97.0,99.0,'11111222,11111222,11144222' 
ADCP,ioos:station:wmo:42369:1,2012-02-02T19:20:00Z,27.2070,-90.2830,60.4,3.3,97.0,99.0,'11111222,11111222,11144222' 
ADCP,ioos:station:wmo:42369:1,2012-02-02T20:00:00Z,27.2070,-90.2830,60.4,3.1,96.0,99.0,'11111222,11111222,11144222' 
ADCP,ioos:station:wmo:42369:1,2012-02-02T20:20:00Z,27.2070,-90.2830,60.4,3.1,96.0,99.0,'11111222,11111222,11144222' 
ADCP,ioos:station:wmo:42369:1,2012-02-02T21:00:00Z,27.2070,-90.2830,60.4,3.4,108.0,99.0,'11111222,11111222,11144222' 
ADCP,ioos:station:wmo:42369:1,2012-02-02T21:20:00Z,27.2070,-90.2830,60.4,3.4,108.0,99.0,'11111222,11111222,11144222' 
ADCP,ioos:station:wmo:42369:1,2012-02-02T22:00:00Z,27.2070,-90.2830,60.4,4.3,120.0,99.0,'11111222,11111222,11144222' 
ADCP,ioos:station:wmo:42369:1,2012-02-02T23:00:00Z,27.2070,-90.2830,60.4,3.6,106.0,99.0,'11111222,11111222,11144222' 
ADCP,ioos:station:wmo:42369:1,2012-02-02T23:20:00Z,27.2070,-90.2830,60.4,3.6,106.0,99.0,'11111222,11111222,11144222' 
ADCP,ioos:station:wmo:42369:1,2012-02-02T23:40:00Z,27.2070,-90.2830,60.4,4.6,97.0,99.0,'11111222,11111222,11144222' 
ADCP,ioos:station:wmo:42369:1,2012-02-03T00:00:00Z,27.2070,-90.2830,60.4,5.4,104.0,99.0,'11111222,11111222,11144222' 
ADCP,ioos:station:wmo:42369:1,2012-02-03T00:20:00Z,27.2070,-90.2830,60.4,5.4,104.0,99.0,'11111222,11111222,11144222' 
ADCP,ioos:station:wmo:42369:1,2012-02-03T00:40:00Z,27.2070,-90.2830,60.4,6.2,116.0,99.0,'11111222,11111222,11144222' 
ADCP,ioos:station:wmo:42369:1,2012-02-03T01:00:00Z,27.2070,-90.2830,60.4,6.8,114.0,99.0,'11111222,11111222,11144222' 
ADCP,ioos:station:wmo:42369:1,2012-02-03T01:20:00Z,27.2070,-90.2830,60.4,6.8,114.0,99.0,'11111222,11111222,11144222' 
ADCP,ioos:station:wmo:42369:1,2012-02-03T02:00:00Z,27.2070,-90.2830,60.4,8.3,111.0,99.0,'11111222,11111222,11144222' 
ADCP,ioos:station:wmo:42369:1,2012-02-03T02:20:00Z,27.2070,-90.2830,60.4,8.3,111.0,99.0,'11111222,11111222,11144222' 
ADCP,ioos:station:wmo:42369:1,2012-02-03T03:20:00Z,27.2070,-90.2830,60.4,9.4,118.0,99.0,'11111222,11111222,11144222' 
ADCP,ioos:station:wmo:42369:1,2012-02-03T04:00:00Z,27.2070,-90.2830,60.4,9.2,124.0,99.0,'11111222,11111222,11144222' 
ADCP,ioos:station:wmo:42369:1,2012-02-03T04:20:00Z,27.2070,-90.2830,60.4,9.2,124.0,99.0,'11111222,11111222,11144222' 
ADCP,ioos:station:wmo:42369:1,2012-02-03T05:00:00Z,27.2070,-90.2830,60.4,9.4,123.0,99.0,'11111222,11111222,11144222' 
ADCP,ioos:station:wmo:42369:1,2012-02-03T05:20:00Z,27.2070,-90.2830,60.4,9.4,123.0,99.0,'11111222,11111222,11144222' 
ADCP,ioos:station:wmo:42369:1,2012-02-03T06:00:00Z,27.2070,-90.2830,60.4,9.3,135.0,99.0,'11111222,11111222,11144222' 
ADCP,ioos:station:wmo:42369:1,2012-02-03T06:20:00Z,27.2070,-90.2830,60.4,9.3,135.0,99.0,'11111222,11111222,11144222' 
ADCP,ioos:station:wmo:42369:1,2012-02-03T07:00:00Z,27.2070,-90.2830,60.4,9.6,138.0,99.0,'11111222,11111222,11144222' 
ADCP,ioos:station:wmo:42369:1,2012-02-03T07:20:00Z,27.2070,-90.2830,60.4,9.6,138.0,99.0,'11111222,11111222,11144222' 
ADCP,ioos:station:wmo:42369:1,2012-02-03T08:00:00Z,27.2070,-90.2830,60.4,10.0,139.0,99.0,'11111222,11111222,11144222' 
ADCP,ioos:station:wmo:42369:1,2012-02-03T08:20:00Z,27.2070,-90.2830,60.4,10.0,139.0,99.0,'11111222,11111222,11144222' 
ADCP,ioos:station:wmo:42369:1,2012-02-03T09:20:00Z,27.2070,-90.2830,60.4,10.6,136.0,99.0,'11111222,11111222,11144222' 
ADCP,ioos:station:wmo:42369:1,2012-02-03T10:00:00Z,27.2070,-90.2830,60.4,9.9,133.0,99.0,'11111222,11111222,11144222' 
ADCP,ioos:station:wmo:42369:1,2012-02-03T10:20:00Z,27.2070,-90.2830,60.4,9.9,133.0,99.0,'11111222,11111222,11144222' 
ADCP,ioos:station:wmo:42369:1,2012-02-03T11:00:00Z,27.2070,-90.2830,60.4,9.8,137.0,99.0,'11111222,11111222,11144222' 
ADCP,ioos:station:wmo:42369:1,2012-02-03T11:20:00Z,27.2070,-90.2830,60.4,9.8,137.0,99.0,'11111222,11111222,11144222' 
ADCP,ioos:station:wmo:42369:1,2012-02-03T12:00:00Z,27.2070,-90.2830,60.4,10.0,136.0,99.0,'11111222,11111222,11144222' 
ADCP,ioos:station:wmo:42369:1,2012-02-03T12:20:00Z,27.2070,-90.2830,60.4,10.0,136.0,99.0,'11111222,11111222,11144222' 
ADCP,ioos:station:wmo:42369:1,2012-02-03T13:20:00Z,27.2070,-90.2830,60.4,10.4,132.0,99.0,'11111222,11111222,11144222' 
ADCP,ioos:station:wmo:42369:1,2012-02-03T14:20:00Z,27.2070,-90.2830,60.4,10.2,131.0,99.0,'11111222,11111222,11144222' 
ADCP,ioos:station:wmo:42369:1,2012-02-03T15:00:00Z,27.2070,-90.2830,60.4,9.5,133.0,99.0,'11111222,11111222,11144222' 
ADCP,ioos:station:wmo:42369:1,2012-02-03T15:20:00Z,27.2070,-90.2830,60.4,9.5,133.0,99.0,'11111222,11111222,11144222' 
ADCP,ioos:station:wmo:42369:1,2012-02-03T16:00:00Z,27.2070,-90.2830,60.4,8.8,134.0,99.0,'11111222,11111222,11144222' 
ADCP,ioos:station:wmo:42369:1,2012-02-03T16:20:00Z,27.2070,-90.2830,60.4,8.8,134.0,99.0,'11111222,11111222,11144222' 
ADCP,ioos:station:wmo:42369:1,2012-02-03T17:00:00Z,27.2070,-90.2830,60.4,7.5,137.0,99.0,'11111222,11111222,11144222' 
ADCP,ioos:station:wmo:42369:1,2012-02-03T17:20:00Z,27.2070,-90.2830,60.4,7.5,137.0,99.0,'11111222,11111222,11144222' 
ADCP,ioos:station:wmo:42369:1,2012-02-03T18:00:00Z,27.2070,-90.2830,60.4,7.8,140.0,99.0,'11111222,11111222,11144222' 
ADCP,ioos:station:wmo:42369:1,2012-02-03T18:20:00Z,27.2070,-90.2830,60.4,7.8,140.0,99.0,'11111222,11111222,11144222' 
ADCP,ioos:station:wmo:42369:1,2012-02-03T19:00:00Z,27.2070,-90.2830,60.4,7.0,133.0,99.0,'11111222,11111222,11144222' 
ADCP,ioos:station:wmo:42369:1,2012-02-03T20:20:00Z,27.2070,-90.2830,60.4,5.9,129.0,99.0,'11111222,11111222,11144222' 
ADCP,ioos:station:wmo:42369:1,2012-02-03T21:00:00Z,27.2070,-90.2830,60.4,6.7,135.0,99.0,'11111222,11111222,11144222' 
ADCP,ioos:station:wmo:42369:1,2012-02-03T21:20:00Z,27.2070,-90.2830,60.4,6.7,135.0,99.0,'11111222,11111222,11144222' 
ADCP,ioos:station:wmo:42369:1,2012-02-03T23:00:00Z,27.2070,-90.2830,60.4,6.4,127.0,99.0,'11111222,11111222,11144222' 
ADCP,ioos:station:wmo:42369:1,2012-02-04T00:00:00Z,27.2070,-90.2830,60.4,8.5,126.0,99.0,'11111222,11111222,11144222' 
ADCP,ioos:station:wmo:42369:1,2012-02-04T00:20:00Z,27.2070,-90.2830,60.4,8.5,126.0,99.0,'11111222,11111222,11144222' 
ADCP,ioos:station:wmo:42369:1,2012-02-04T02:00:00Z,27.2070,-90.2830,60.4,8.1,125.0,99.0,'11111222,11111222,11144222' 
ADCP,ioos:station:wmo:42369:1,2012-02-04T02:20:00Z,27.2070,-90.2830,60.4,8.1,125.0,99.0,'11111222,11111222,11144222' 
ADCP,ioos:station:wmo:42369:1,2012-02-04T03:20:00Z,27.2070,-90.2830,60.4,7.8,135.0,99.0,'11111222,11111222,11144222' 
ADCP,ioos:station:wmo:42369:1,2012-02-04T04:20:00Z,27.2070,-90.2830,60.4,6.6,136.0,99.0,'11111222,11111222,11144222' 
ADCP,ioos:station:wmo:42369:1,2012-02-04T05:00:00Z,27.2070,-90.2830,60.4,5.5,123.0,99.0,'11111222,11111222,11144222' 
ADCP,ioos:station:wmo:42369:1,2012-02-04T05:20:00Z,27.2070,-90.2830,60.4,5.5,123.0,99.0,'11111222,11111222,11144222' 
ADCP,ioos:station:wmo:42369:1,2012-02-04T05:40:00Z,27.2070,-90.2830,60.4,6.3,125.0,99.0,'11111222,11111222,11144222' 
ADCP,ioos:station:wmo:42369:1,2012-02-04T06:00:00Z,27.2070,-90.2830,60.4,6.1,125.0,99.0,'11111222,11111222,11144222' 
ADCP,ioos:station:wmo:42369:1,2012-02-04T06:20:00Z,27.2070,-90.2830,60.4,6.1,125.0,99.0,'11111222,11111222,11144222' 
ADCP,ioos:station:wmo:42369:1,2012-02-04T07:00:00Z,27.2070,-90.2830,60.4,5.5,134.0,99.0,'11111222,11111222,11144222' 
ADCP,ioos:station:wmo:42369:1,2012-02-04T09:20:00Z,27.2070,-90.2830,60.4,4.8,165.0,99.0,'11111222,11111222,11144222' 
ADCP,ioos:station:wmo:42369:1,2012-02-04T10:00:00Z,27.2070,-90.2830,60.4,4.1,167.0,99.0,'11111222,11111222,11144222' 
ADCP,ioos:station:wmo:42369:1,2012-02-04T10:20:00Z,27.2070,-90.2830,60.4,4.1,167.0,99.0,'11111222,11111222,11144222' 
ADCP,ioos:station:wmo:42369:1,2012-02-04T11:20:00Z,27.2070,-90.2830,60.4,5.5,165.0,99.0,'11111222,11111222,11144222' 
ADCP,ioos:station:wmo:42369:1,2012-02-04T12:00:00Z,27.2070,-90.2830,60.4,4.2,133.0,99.0,'11111222,11111222,11144222' 
ADCP,ioos:station:wmo:42369:1,2012-02-04T13:20:00Z,27.2070,-90.2830,60.4,5.2,129.0,99.0,'11111222,11111222,11144222' 
ADCP,ioos:station:wmo:42369:1,2012-02-04T14:00:00Z,27.2070,-90.2830,60.4,4.3,129.0,99.0,'11111222,11111222,11144222' 
ADCP,ioos:station:wmo:42369:1,2012-02-04T15:00:00Z,27.2070,-90.2830,60.4,5.5,112.0,99.0,'11111222,11111222,11144222' 
ADCP,ioos:station:wmo:42369:1,2012-02-04T15:20:00Z,27.2070,-90.2830,60.4,5.5,112.0,99.0,'11111222,11111222,11144222' 
ADCP,ioos:station:wmo:42369:1,2012-02-04T16:20:00Z,27.2070,-90.2830,60.4,5.7,122.0,99.0,'11111222,11111222,11144222' 
ADCP,ioos:station:wmo:42369:1,2012-02-04T17:00:00Z,27.2070,-90.2830,60.4,4.2,123.0,99.0,'11111222,11111222,11144222' 
ADCP,ioos:station:wmo:42369:1,2012-02-04T17:20:00Z,27.2070,-90.2830,60.4,4.2,123.0,99.0,'11111222,11111222,11144222' 
ADCP,ioos:station:wmo:42369:1,2012-02-04T19:20:00Z,27.2070,-90.2830,60.4,2.8,119.0,99.0,'11111222,11111222,11144222' 
ADCP,ioos:station:wmo:42369:1,2012-02-04T20:20:00Z,27.2070,-90.2830,60.4,3.1,111.0,99.0,'11111222,11111222,11144222' 
ADCP,ioos:station:wmo:42369:1,2012-02-04T21:00:00Z,27.2070,-90.2830,60.4,3.8,110.0,99.0,'11111222,11111222,11144222' 
ADCP,ioos:station:wmo:42369:1,2012-02-04T22:00:00Z,27.2070,-90.2830,60.4,2.8,80.0,99.0,'11111222,11111222,11144222' 
ADCP,ioos:station:wmo:42369:1,2012-02-04T22:20:00Z,27.2070,-90.2830,60.4,2.8,80.0,99.0,'11111222,11111222,11144222' 
ADCP,ioos:station:wmo:42369:1,2012-02-04T23:20:00Z,27.2070,-90.2830,60.4,3.1,67.0,99.0,'11111222,11111222,11144222' 
ADCP,ioos:station:wmo:42369:1,2012-02-05T00:20:00Z,27.2070,-90.2830,60.4,3.7,83.0,99.0,'11111222,11111222,11144222' 
ADCP,ioos:station:wmo:42369:1,2012-02-05T01:20:00Z,27.2070,-90.2830,60.4,3.5,68.0,99.0,'11111222,11111222,11144222' 
ADCP,ioos:station:wmo:42369:1,2012-02-05T02:00:00Z,27.2070,-90.2830,60.4,3.5,77.0,99.0,'11111222,11111222,11144222' 
ADCP,ioos:station:wmo:42369:1,2012-02-05T02:20:00Z,27.2070,-90.2830,60.4,3.5,77.0,99.0,'11111222,11111222,11144222' 
ADCP,ioos:station:wmo:42369:1,2012-02-05T04:20:00Z,27.2070,-90.2830,60.4,4.0,81.0,99.0,'11111222,11111222,11144222' 
ADCP,ioos:station:wmo:42369:1,2012-02-05T05:20:00Z,27.2070,-90.2830,60.4,3.7,83.0,99.0,'11111222,11111222,11144222' 
ADCP,ioos:station:wmo:42369:1,2012-02-05T06:00:00Z,27.2070,-90.2830,60.4,3.8,82.0,99.0,'11111222,11111222,11144222' 
ADCP,ioos:station:wmo:42369:1,2012-02-05T06:20:00Z,27.2070,-90.2830,60.4,3.8,82.0,99.0,'11111222,11111222,11144222' 
ADCP,ioos:station:wmo:42369:1,2012-02-05T07:00:00Z,27.2070,-90.2830,60.4,4.4,78.0,99.0,'11111222,11111222,11144222' 
ADCP,ioos:station:wmo:42369:1,2012-02-05T07:20:00Z,27.2070,-90.2830,60.4,4.4,78.0,99.0,'11111222,11111222,11144222' 
ADCP,ioos:station:wmo:42369:1,2012-02-05T08:20:00Z,27.2070,-90.2830,60.4,3.4,81.0,99.0,'11111222,11111222,11144222' 
ADCP,ioos:station:wmo:42369:1,2012-02-05T09:20:00Z,27.2070,-90.2830,60.4,3.8,76.0,99.0,'11111222,11111222,11144222' 
ADCP,ioos:station:wmo:42369:1,2012-02-05T10:00:00Z,27.2070,-90.2830,60.4,4.1,69.0,99.0,'11111222,11111222,11144222' 
ADCP,ioos:station:wmo:42369:1,2012-02-05T10:20:00Z,27.2070,-90.2830,60.4,4.1,69.0,99.0,'11111222,11111222,11144222' 
ADCP,ioos:station:wmo:42369:1,2012-02-05T12:20:00Z,27.2070,-90.2830,60.4,4.2,55.0,99.0,'11111222,11111222,11144222' 
ADCP,ioos:station:wmo:42369:1,2012-02-05T13:20:00Z,27.2070,-90.2830,60.4,6.2,22.0,99.0,'11111222,11111222,11144222' 
ADCP,ioos:station:wmo:42369:1,2012-02-05T14:00:00Z,27.2070,-90.2830,60.4,10.5,25.0,99.0,'11111222,11111222,11144222' 
ADCP,ioos:station:wmo:42369:1,2012-02-05T14:20:00Z,27.2070,-90.2830,60.4,10.5,25.0,99.0,'11111222,11111222,11144222' 
ADCP,ioos:station:wmo:42369:1,2012-02-05T15:00:00Z,27.2070,-90.2830,60.4,9.5,25.0,99.0,'11111222,11111222,11144222' 
ADCP,ioos:station:wmo:42369:1,2012-02-05T16:00:00Z,27.2070,-90.2830,60.4,9.9,24.0,99.0,'11111222,11111222,11144222' 
ADCP,ioos:station:wmo:42369:1,2012-02-05T16:20:00Z,27.2070,-90.2830,60.4,9.9,24.0,99.0,'11111222,11111222,11144222' 
ADCP,ioos:station:wmo:42369:1,2012-02-05T17:00:00Z,27.2070,-90.2830,60.4,10.0,30.0,99.0,'11111222,11111222,11144222' 
ADCP,ioos:station:wmo:42369:1,2012-02-05T19:00:00Z,27.2070,-90.2830,60.4,10.3,37.0,99.0,'11111222,11111222,11144222' 
ADCP,ioos:station:wmo:42369:1,2012-02-05T20:20:00Z,27.2070,-90.2830,60.4,10.8,40.0,99.0,'11111222,11111222,11144222' 
ADCP,ioos:station:wmo:42369:1,2012-02-05T21:20:00Z,27.2070,-90.2830,60.4,9.8,38.0,99.0,'11111222,11111222,11144222' 
ADCP,ioos:station:wmo:42369:1,2012-02-05T23:20:00Z,27.2070,-90.2830,60.4,10.0,37.0,99.0,'11111222,11111222,11144222' 
ADCP,ioos:station:wmo:42369:1,2012-02-06T00:00:00Z,27.2070,-90.2830,60.4,10.2,30.0,99.0,'11111222,11111222,11144222' 
ADCP,ioos:station:wmo:42369:1,2012-02-06T00:20:00Z,27.2070,-90.2830,60.4,10.2,30.0,99.0,'11111222,11111222,11144222' 
ADCP,ioos:station:wmo:42369:1,2012-02-06T01:20:00Z,27.2070,-90.2830,60.4,10.4,30.0,99.0,'11111222,11111222,11144222' 
ADCP,ioos:station:wmo:42369:1,2012-02-06T02:20:00Z,27.2070,-90.2830,60.4,10.4,25.0,99.0,'11111222,11111222,11144222' 
ADCP,ioos:station:wmo:42369:1,2012-02-06T04:00:00Z,27.2070,-90.2830,60.4,10.0,46.0,99.0,'11111222,11111222,11144222' 
ADCP,ioos:station:wmo:42369:1,2012-02-06T05:20:00Z,27.2070,-90.2830,60.4,8.9,39.0,99.0,'11111222,11111222,11144222' 
ADCP,ioos:station:wmo:42369:1,2012-02-06T05:40:00Z,27.2070,-90.2830,60.4,8.7,37.0,99.0,'11111222,11111222,11144222' 
ADCP,ioos:station:wmo:42369:1,2012-02-06T06:00:00Z,27.2070,-90.2830,60.4,9.1,28.0,99.0,'11111222,11111222,11144222' 
ADCP,ioos:station:wmo:42369:1,2012-02-06T06:20:00Z,27.2070,-90.2830,60.4,9.1,28.0,99.0,'11111222,11111222,11144222' 
ADCP,ioos:station:wmo:42369:1,2012-02-06T07:20:00Z,27.2070,-90.2830,60.4,10.1,26.0,99.0,'11111222,11111222,11144222' 
ADCP,ioos:station:wmo:42369:1,2012-02-06T09:00:00Z,27.2070,-90.2830,60.4,10.0,25.0,99.0,'11111222,11111222,11144222' 
ADCP,ioos:station:wmo:42369:1,2012-02-06T09:20:00Z,27.2070,-90.2830,60.4,10.0,25.0,99.0,'11111222,11111222,11144222' 
ADCP,ioos:station:wmo:42369:1,2012-02-06T10:00:00Z,27.2070,-90.2830,60.4,10.2,25.0,99.0,'11111222,11111222,11144222' 
ADCP,ioos:station:wmo:42369:1,2012-02-06T12:20:00Z,27.2070,-90.2830,60.4,11.4,23.0,99.0,'11111222,11111222,11144222' 
ADCP,ioos:station:wmo:42369:1,2012-02-06T13:20:00Z,27.2070,-90.2830,60.4,10.1,27.0,99.0,'11111222,11111222,11144222' 
ADCP,ioos:station:wmo:42369:1,2012-02-06T14:00:00Z,27.2070,-90.2830,60.4,9.8,24.0,99.0,'11111222,11111222,11144222' 
ADCP,ioos:station:wmo:42369:1,2012-02-06T14:20:00Z,27.2070,-90.2830,60.4,9.8,24.0,99.0,'11111222,11111222,11144222' 
ADCP,ioos:station:wmo:42369:1,2012-02-06T16:20:00Z,27.2070,-90.2830,60.4,8.6,23.0,99.0,'11111222,11111222,11144222' 